Fremont, MI

11:53 AM EST on December 11, 2019 (GMT -0500)
Fremont

Weather History for KFFX - October, 2019

Change the Weather History Date:

Tuesday, October 29, 2019

  Actual Average (KMKG) Record (KMKG)
Temperature  
Mean Temperature 42 °F -  
Max Temperature 45 °F 54 °F 74 °F (1896)
Min Temperature 38 °F 35 °F 19 °F (1905)
Degree Days  
Heating Degree Days 24    
Moisture  
Dew Point 39 °F    
Average Humidity 93    
Maximum Humidity 100    
Minimum Humidity 73    
Precipitation  
Precipitation 0.00 in - - ()
Sea Level Pressure  
Sea Level Pressure 30.13 in    
Wind  
Wind Speed 5 mph ()    
Max Wind Speed 20 mph    
Max Gust Speed 24 mph    
Visibility 9.4 miles    
Events Rain    
Averages and records for this station are not official NWS values.
T = Trace of Precipitation, MM = Missing Value Source: Averaged Metar Reports

Daily Weather History Graph

Daily Weather History Graph

Search for Another Location

Airport or City:

Astronomy

Oct. 29, 2019 Rise Set
Actual Time 8:15 AM EDT 6:39 PM EDT
Civil Twilight 7:45 AM EDT 7:09 PM EDT
Nautical Twilight 7:12 AM EDT 7:42 PM EDT
Astronomical Twilight 6:38 AM EDT 8:15 PM EDT
Moon 9:49 AM EDT (10/29) 8:01 PM EDT (10/29)
Length of Visible Light 11h 23m
Length of Day
10h 24m
Waxing Crescent, 3% of the Moon is Illuminated
Oct 29
Waxing Crescent
Nov 4
First Quarter
Nov 12
Full
Nov 19
Last Quarter
Nov 26
New

Hourly Weather History & Observations

Time (EDT) Temp. Windchill Dew Point Humidity Pressure Visibility Wind Dir Wind Speed Gust Speed Precip Events Conditions
12:15 AM 43.9 °F 42.3 °F 43.9 °F 100% 30.03 in 10.0 mi NW 3.5 mph - N/A   Overcast
12:35 AM 43.7 °F 42.1 °F 43.7 °F 100% 30.02 in 10.0 mi NNW 3.5 mph - N/A   Overcast
12:58 AM 43.2 °F - 43.2 °F 100% 30.01 in 10.0 mi Calm Calm - N/A   Overcast
1:16 AM 43.3 °F 40.7 °F 43.3 °F 100% 29.99 in 10.0 mi East 4.6 mph - N/A   Overcast
1:35 AM 43.7 °F 42.1 °F 43.7 °F 100% 29.99 in 10.0 mi ENE 3.5 mph - N/A   Overcast
1:55 AM 43.9 °F 42.3 °F 43.9 °F 100% 29.98 in 10.0 mi East 3.5 mph - N/A   Overcast
1:56 AM 43.9 °F 42.3 °F 43.9 °F 100% 29.98 in 10.0 mi East 3.5 mph - N/A   Overcast
2:19 AM 44.2 °F - 44.2 °F 100% 29.98 in 10.0 mi Calm Calm - N/A   Overcast
2:37 AM 44.1 °F 42.5 °F 44.1 °F 100% 29.99 in 10.0 mi NW 3.5 mph - N/A   Overcast
2:55 AM 43.9 °F 40.5 °F 43.9 °F 100% 30.00 in 10.0 mi WNW 5.8 mph - N/A   Overcast
2:56 AM 43.9 °F 40.5 °F 43.9 °F 100% 30.00 in 10.0 mi WNW 5.8 mph - N/A   Overcast
3:15 AM 43.7 °F 39.1 °F 43.7 °F 100% 30.01 in 10.0 mi WNW 8.1 mph - N/A   Overcast
3:16 AM 43.7 °F 39.7 °F 43.7 °F 100% 30.01 in 10.0 mi NW 6.9 mph - N/A   Overcast
3:35 AM 43.7 °F 39.1 °F 43.7 °F 100% 30.02 in 10.0 mi NW 8.1 mph - N/A   Drizzle
3:40 AM 43.2 °F 38.4 °F 43.2 °F 100% 30.01 in 7.0 mi NW 8.1 mph - N/A   Drizzle
3:58 AM 43.2 °F 39.7 °F 43.2 °F 100% 30.01 in 3.0 mi NNW 5.8 mph - N/A   Drizzle
4:16 AM 42.8 °F 38.6 °F 42.8 °F 100% 30.02 in 4.0 mi NW 6.9 mph - N/A   Light Drizzle
4:35 AM 42.8 °F 38.6 °F 42.8 °F 100% 30.03 in 4.0 mi NNW 6.9 mph - N/A Rain Light Rain
4:55 AM 42.8 °F 40.1 °F 42.8 °F 100% 30.02 in 3.0 mi NNW 4.6 mph - N/A Rain Rain
4:56 AM 42.6 °F 39.0 °F 42.6 °F 100% 30.02 in 3.0 mi NNW 5.8 mph - N/A Rain Rain
5:19 AM 42.1 °F 33.3 °F 42.1 °F 100% 30.04 in 7.0 mi NW 19.6 mph 24.2 mph N/A Rain Rain
5:37 AM 39.2 °F 29.6 °F 39.2 °F 100% 30.04 in 7.0 mi NNW 19.6 mph 24.2 mph N/A   Drizzle
5:56 AM 38.7 °F 30.5 °F 38.7 °F 100% 30.05 in 10.0 mi North 13.8 mph 20.7 mph N/A Rain Light Rain
6:15 AM 38.5 °F 33.4 °F 38.5 °F 100% 30.04 in 10.0 mi North 6.9 mph - N/A Rain Light Rain
6:35 AM 38.5 °F 33.4 °F 38.5 °F 100% 30.04 in 10.0 mi North 6.9 mph - N/A   Light Drizzle
6:58 AM 38.7 °F 34.3 °F 38.7 °F 100% 30.04 in 10.0 mi North 5.8 mph - N/A   Overcast
7:35 AM 38.5 °F 36.1 °F 38.5 °F 100% 30.04 in 10.0 mi North 3.5 mph - N/A   Overcast
7:55 AM 38.7 °F 35.2 °F 38.7 °F 100% 30.05 in 10.0 mi NNW 4.6 mph - N/A   Overcast
8:19 AM 38.5 °F 32.7 °F 38.5 °F 100% 30.06 in 10.0 mi NNW 8.1 mph - N/A   Overcast
8:37 AM 38.7 °F 32.9 °F 38.7 °F 100% 30.08 in 10.0 mi NNW 8.1 mph - N/A   Overcast
8:55 AM 38.7 °F 32.9 °F 38.7 °F 100% 30.09 in 10.0 mi NNW 8.1 mph - N/A   Overcast
8:56 AM 38.5 °F 32.7 °F 38.5 °F 100% 30.09 in 10.0 mi NNW 8.1 mph - N/A   Overcast
9:15 AM 38.7 °F 31.8 °F 38.7 °F 100% 30.10 in 10.0 mi NNW 10.4 mph - N/A   Overcast
9:16 AM 38.7 °F 31.8 °F 38.7 °F 100% 30.10 in 10.0 mi NNW 10.4 mph - N/A   Overcast
9:35 AM 39.0 °F 35.7 °F 39.0 °F 100% 30.11 in 10.0 mi NNW 4.6 mph - N/A   Overcast
9:57 AM 39.2 °F 37.0 °F 39.2 °F 100% 30.11 in 10.0 mi North 3.5 mph - N/A   Overcast
10:16 AM 39.4 °F 35.2 °F 39.4 °F 100% 30.11 in 10.0 mi North 5.8 mph - N/A   Overcast
10:35 AM 39.6 °F 35.4 °F 39.6 °F 100% 30.12 in 10.0 mi NNW 5.8 mph - N/A   Overcast
10:36 AM 39.6 °F 35.4 °F 39.6 °F 100% 30.12 in 10.0 mi NNW 5.8 mph - N/A   Overcast
10:55 AM 39.7 °F 36.5 °F 39.7 °F 100% 30.14 in 7.0 mi NNW 4.6 mph - N/A   Overcast
10:56 AM 39.7 °F 36.5 °F 39.7 °F 100% 30.14 in 7.0 mi NNW 4.6 mph - N/A   Overcast
11:18 AM 40.1 °F 36.9 °F 40.1 °F 100% 30.13 in 10.0 mi NNW 4.6 mph - N/A   Overcast
11:37 AM 41.0 °F 39.0 °F 41.0 °F 100% 30.14 in 10.0 mi NW 3.5 mph - N/A   Overcast
11:55 AM 41.4 °F 38.4 °F 41.2 °F 99% 30.15 in 10.0 mi NNW 4.6 mph - N/A   Overcast
12:15 PM 42.1 °F 39.2 °F 41.5 °F 98% 30.15 in 10.0 mi North 4.6 mph - N/A   Overcast
12:16 PM 42.1 °F 39.2 °F 41.7 °F 99% 30.15 in 10.0 mi North 4.6 mph - N/A   Overcast
12:35 PM 42.8 °F - 39.7 °F 89% 30.15 in 10.0 mi Calm Calm - N/A   Overcast
12:40 PM 42.8 °F 41.1 °F 38.7 °F 85% 30.15 in 10.0 mi North 3.5 mph - N/A   Overcast
12:58 PM 43.7 °F 41.1 °F 37.4 °F 78% 30.15 in 10.0 mi NNW 4.6 mph - N/A   Overcast
1:16 PM 43.5 °F - 37.6 °F 80% 30.16 in 10.0 mi Calm Calm - N/A   Overcast
1:35 PM 44.6 °F 40.7 °F 37.2 °F 75% 30.15 in 10.0 mi West 6.9 mph - N/A   Overcast
1:36 PM 44.6 °F 41.4 °F 37.2 °F 75% 30.15 in 10.0 mi West 5.8 mph - N/A   Overcast
1:55 PM 44.6 °F 40.7 °F 37.2 °F 75% 30.16 in 10.0 mi WNW 6.9 mph - N/A   Overcast
1:56 PM 44.6 °F 40.7 °F 37.2 °F 75% 30.16 in 10.0 mi WNW 6.9 mph - N/A   Overcast
2:19 PM 45.3 °F 41.6 °F 37.4 °F 74% 30.15 in 10.0 mi WNW 6.9 mph - N/A   Overcast
2:37 PM 44.4 °F 40.5 °F 36.5 °F 74% 30.16 in 10.0 mi West 6.9 mph - N/A   Overcast
2:55 PM 44.4 °F 40.5 °F 36.3 °F 73% 30.16 in 10.0 mi West 6.9 mph - N/A   Overcast
3:40 PM 42.8 °F 37.0 °F 40.1 °F 90% 30.18 in 10.0 mi WNW 10.4 mph - N/A   Overcast
3:58 PM 42.3 °F 36.8 °F 41.0 °F 95% 30.19 in 10.0 mi WNW 9.2 mph - N/A   Overcast
4:16 PM 42.1 °F 37.1 °F 38.3 °F 86% 30.19 in 10.0 mi WNW 8.1 mph - N/A   Overcast
4:36 PM 42.1 °F 38.4 °F 39.4 °F 90% 30.19 in 10.0 mi West 5.8 mph - N/A   Overcast
4:55 PM 42.1 °F 38.4 °F 37.0 °F 82% 30.20 in 10.0 mi WNW 5.8 mph - N/A   Overcast
5:19 PM 42.1 °F 37.1 °F 37.2 °F 83% 30.21 in 10.0 mi WNW 8.1 mph - N/A   Overcast
5:37 PM 41.9 °F 36.9 °F 36.5 °F 81% 30.21 in 10.0 mi NW 8.1 mph - N/A   Overcast
5:55 PM 41.9 °F 40.0 °F 37.2 °F 83% 30.22 in 10.0 mi WNW 3.5 mph - N/A   Overcast
5:56 PM 41.9 °F 40.0 °F 37.6 °F 85% 30.22 in 10.0 mi WNW 3.5 mph - N/A   Overcast
6:15 PM 41.7 °F 38.0 °F 36.3 °F 81% 30.21 in 10.0 mi West 5.8 mph - N/A   Overcast
6:16 PM 41.7 °F 38.8 °F 36.0 °F 80% 30.21 in 10.0 mi West 4.6 mph - N/A   Overcast
6:35 PM 41.2 °F 39.2 °F 36.5 °F 83% 30.22 in 10.0 mi West 3.5 mph - N/A   Overcast
6:40 PM 41.2 °F 39.2 °F 37.0 °F 85% 30.22 in 10.0 mi West 3.5 mph - N/A   Overcast
6:58 PM 41.2 °F 37.3 °F 36.5 °F 83% 30.23 in 10.0 mi West 5.8 mph - N/A   Overcast
7:16 PM 41.0 °F 39.0 °F 37.8 °F 88% 30.23 in 10.0 mi West 3.5 mph - N/A   Overcast
7:35 PM 40.6 °F 38.6 °F 35.6 °F 82% 30.24 in 10.0 mi West 3.5 mph - N/A   Overcast
7:55 PM 40.5 °F 38.4 °F 38.5 °F 93% 30.25 in 10.0 mi West 3.5 mph - N/A   Overcast
7:56 PM 40.5 °F 37.3 °F 38.7 °F 93% 30.25 in 10.0 mi West 4.6 mph - N/A   Overcast
8:19 PM 40.3 °F 38.2 °F 38.1 °F 92% 30.25 in 10.0 mi WNW 3.5 mph - N/A   Overcast
8:37 PM 40.1 °F 38.0 °F 38.1 °F 93% 30.25 in 10.0 mi WNW 3.5 mph - N/A   Overcast
8:55 PM 40.1 °F 36.1 °F 37.6 °F 91% 30.25 in 10.0 mi WNW 5.8 mph - N/A   Overcast
9:15 PM 40.1 °F 38.0 °F 33.6 °F 78% 30.26 in 10.0 mi West 3.5 mph - N/A   Overcast
9:16 PM 40.1 °F 38.0 °F 33.6 °F 78% 30.26 in 10.0 mi West 3.5 mph - N/A   Overcast
9:35 PM 39.9 °F - 33.6 °F 78% 30.27 in 10.0 mi Calm Calm - N/A   Overcast
9:58 PM 39.7 °F - 36.1 °F 87% 30.27 in 10.0 mi Calm Calm - N/A   Overcast
10:16 PM 39.6 °F - 37.0 °F 91% 30.27 in 10.0 mi Calm Calm - N/A   Overcast
10:35 PM 39.6 °F - 38.1 °F 95% 30.28 in 10.0 mi Calm Calm - N/A   Overcast
10:55 PM 39.6 °F - 38.5 °F 96% 30.28 in 10.0 mi Calm Calm - N/A   Overcast
11:19 PM 39.4 °F - 38.3 °F 96% 30.29 in 10.0 mi Calm Calm - N/A   Overcast
11:55 PM 39.4 °F - 37.0 °F 91% 30.29 in 10.0 mi Calm Calm - N/A   Overcast